User: anonymous   Login
Location: Unspecified
(0.0000°N, 0.0000°E)
Time: 19:44:57
(UTC+01:00)
Language:

Iridium 15 - Orbit

View from above orbital plane
View from above orbital plane
View from above satellite
View from above satellite

Ground track
Ground track

The orbit data is extracted from the following two-line orbital elements,

1 24869U 97034A   15063.36548093  .00000065  00000-0  16313-4 0  9994
2 24869 086.3993 011.1795 0002291 085.1585 076.3257 14.34218355924112
Epoch (UTC): 04 March 2015 08:46:17
Eccentricity: 0.0002291
inclination: 86.3993°
perigee height: 776 km
apogee height: 779 km
right ascension of ascending node: 11.1795°
argument of perigee: 85.1585°
revolutions per day: 14.34218355
mean anomaly at epoch: 76.3257°
orbit number at epoch: 92411

The dashed part of the orbit path shows where the satellite is in the earth's shadow,  

DLR